Location: Rio Tanui
(39.9167°N, 8.5167°E)
Time: 02:44:39
(UTC+00:00)

Okean O Rocket - Pass Details

Date: 08 February 2023
Orbit: 620 x 643 km, 98.1° (Epoch: 01 April)

Event Time Altitude Azimuth Distance (km) Brightness Sun altitude
Rises 17:45:24 0° 134° (SE) 2,914 4.7 -10.5°
Reaches altitude 10° 17:47:55 10° 120° (ESE) 2,015 3.7 -11.0°
Maximum altitude 17:51:24 23° 67° (ENE) 1,343 2.7 -11.6°
Drops below altitude 10° 17:54:54 10° 15° (NNE) 2,038 4.0 -12.3°
Sets 17:57:28 0° 1° (N) 2,955 4.9 -12.8°
